Torna al catalogo

STARLINK-32050

AttivoComunicazioniVLEO
NORAD 60137·PAYLOAD·🇺🇸 United States

Lanciato Jun 27, 2024 da Cape Canaveral Space Force Station

Loading…

Prossimi Passaggi (prossime 24 ore)

TLE

AggiornatoSource: CelesTrak SupGP

Epoca: Sep 15, 2026, 03:26 UTC

1 60137C 24120C   26258.14354167  .00016070  00000+0  47485-3 0  2582
2 60137  53.1581 156.7374 0001281  86.4791  53.9295 15.34378768    18

Traccia STARLINK-32050 in tempo reale con AllMySat

Download on the App Store